Overview Statistics Trail Chart Weather Telemetry Raw packets
 

This is the latest recevied weather packets stored in our database for station/object WI0K. If no packets are shown the sender has not sent any weather packets the latest 10 day(s).

<< 88 89 90 91 92 93 94 >>
Time Temp. Humidity Pressure Rain* Wind** Luminosity Snow
1788019708 27.78° C 34% 1019.7 hPa 0 mm - 711 W/m² -
1788019407 27.78° C 36% 1019.7 hPa 0 mm - 696 W/m² -
1788019106 27.22° C 41% 832.6 hPa 0 mm - 620 W/m² -
1788018814 26.67° C 36% 1019.7 hPa 0 mm - 615 W/m² -
1788018505 26.67° C 40% 1019.7 hPa 0 mm - 662 W/m² -
1788018205 26.11° C 37% 1019.7 hPa 0 mm - 638 W/m² -
1788017904 26.67° C 39% 1019.6 hPa 0 mm - 638 W/m² -
1788017603 26.11° C 40% 1019.7 hPa 0 mm - 664 W/m² -
1788017302 25.56° C 44% 1019.6 hPa 0 mm - 575 W/m² -
1788017001 25.56° C 41% 1019.6 hPa 0 mm - 583 W/m² -
1788016701 25.56° C 42% 1019.5 hPa 0 mm - 590 W/m² -
1788016400 25° C 44% 1019.6 hPa 0 mm - 544 W/m² -
1788016099 25° C 42% 1019.6 hPa 0 mm - 503 W/m² -
1788015799 24.44° C 41% 1019.5 hPa 0 mm - 527 W/m² -
1788015498 24.44° C 42% 1019.6 hPa 0 mm - 393 W/m² -
1788015197 23.89° C 44% 1019.7 hPa 0 mm - 456 W/m² -
1788014896 23.33° C 48% 1019.7 hPa 0 mm - 428 W/m² -
1788014595 23.33° C 46% 1019.8 hPa 0 mm - 403 W/m² -
1788014294 22.78° C 47% 1019.8 hPa 0 mm - 374 W/m² -
1788013994 22.22° C 50% 1019.9 hPa 0 mm - 378 W/m² -
1788013693 21.67° C 52% 1019.9 hPa 0 mm - 362 W/m² -
1788013392 21.11° C 54% 1020.1 hPa 0 mm - 344 W/m² -
1788013092 20.56° C 52% 1020.1 hPa 0 mm - 208 W/m² -
1788012791 20.56° C 50% 1020.1 hPa 0 mm - 221 W/m² -
1788012490 20.56° C 51% 1020.2 hPa 0 mm - 87 W/m² -

* Rain latest hour (hover to see other rain measurements)
** Current wind speed in m/s (hover to see current wind gust speed)